Location: Newark
(44.6303°N, 123.0961°W)
Time: 10:53:36
(UTC+00:00)

Envisat - Pass Details

Date: 31 January 2020
Orbit: 764 x 766 km, 98.1° (Epoch: 20 February)

Event Time Altitude Azimuth Distance (km) Brightness Sun altitude
Rises 02:02:35 0° 169° (SSE) 3,219 6.3 -8.3°
Reaches altitude 10° 02:04:53 10° 170° (S) 2,297 5.6 -8.7°
Maximum altitude 02:09:56 78° 256° (WSW) 787 3.2 -9.5°
Drops below altitude 10° 02:15:03 10° 344° (NNW) 2,313 5.5 -10.4°
Sets 02:17:22 0° 346° (NNW) 3,243 6.3 -10.8°
